Location: Helsinki
(60.1699°N, 24.9384°E)
Time: 21:51:29
(UTC+03:00)

Vanguard 2 Rocket - Visible Passes

Search period start: 02 October 2022 00:00
Search period end: 12 October 2022 00:00
Orbit: 553 x 3323 km, 32.9° (Epoch: 02 October)

Date Brightness Start Highest point End Pass type
(mag) Time Alt. Az. Time Alt. Az. Time Alt. Az.
07 Oct 10.4 21:55:59 10° S 21:59:35 12° S 21:59:35 12° S visible
08 Oct 10.3 20:57:17 10° SSE 21:01:50 11° SSE 21:03:06 11° SSE visible
08 Oct 10.4 23:05:36 10° SSW 23:08:52 14° SSW 23:08:52 14° SSW visible
09 Oct 10.2 22:04:37 10° SSW 22:12:20 17° S 22:12:20 17° S visible
10 Oct 10.6 00:17:57 10° SW 00:18:06 10° SW 00:18:06 10° SW visible
10 Oct 10.2 21:04:23 10° S 21:13:34 16° SSE 21:15:44 16° SSE visible
10 Oct 10.3 23:15:59 10° SW 23:21:30 17° SSW 23:21:30 17° SSW visible
11 Oct 10.3 20:05:17 10° S 20:12:58 14° SSE 20:19:05 11° SE visible
11 Oct 10.1 22:14:31 10° SSW 22:24:50 20° S 22:24:50 20° S visible
